Location: Harwich
(41.6860°N, 70.0760°W)
Time: 10:01:33
(UTC-04:00)

Daily predictions for brighter satellites

Satellite Brightness Start Highest point End
(mag) Time Altitude Azimuth Time Altitude Azimuth Time Altitude Azimuth
Cosmos 2278 3.7 19:40:15 10° SSW 19:45:53 71° ESE 19:51:34 10° NNE
Cosmos 1626 Rocket 4.3 19:43:28 10° NNE 19:47:26 32° ENE 19:51:21 10° SE
Cosmos 1892 Rocket 3.7 19:44:15 10° N 19:48:46 84° W 19:53:15 10° S
Meteor 2-4 Rocket 4.3 19:44:14 10° NNW 19:50:04 69° W 19:55:57 10° S
Cosmos 1455 Rocket 3.0 19:47:53 10° S 19:52:11 71° E 19:56:32 10° NNE
Cosmos 1570 Rocket 4.1 19:46:55 10° SSW 19:52:14 86° WNW 19:57:32 10° NNE
Cosmos 2084 4.1 19:48:39 10° NNW 19:52:25 37° NE 19:56:22 10° ESE
Cosmos 1602 Rocket 4.0 19:53:00 10° N 19:57:14 41° ENE 20:01:25 10° SSE
Cosmos 2123 Rocket 4.0 19:51:20 10° N 19:57:32 74° E 20:03:41 10° SSE
EO 1 Delta rocket 4.2 19:53:27 10° NNE 19:58:06 53° E 20:03:29 10° S
Cosmos 1980 Rocket 3.4 19:55:52 10° SE 19:59:54 20° E 20:03:57 10° NE
Cosmos 2369 3.7 19:54:43 10° SSW 20:00:23 83° ESE 20:06:07 10° NNE
Lacrosse 5 2.6 19:56:23 10° NW 20:01:11 41° NE 20:05:41 11° ESE
Cosmos 220 Rocket 4.1 19:57:28 10° N 20:01:37 53° ENE 20:05:44 10° SE
Resurs 1-3 4.2 20:01:06 10° S 20:05:26 60° W 20:09:48 10° NNW
H-2A R/B 2.8 20:02:04 10° SSE 20:05:54 63° ENE 20:09:48 10° N
Cosmos 2150 Rocket 4.4 20:06:30 10° N 20:11:26 44° ENE 20:15:59 12° SE
ERS-1 Rocket 3.8 20:08:20 11° SE 20:12:41 33° ENE 20:17:10 10° N
Cosmos 1975 2.9 20:09:39 10° S 20:13:40 59° E 20:17:44 10° NNE
FENGYUN 3A 3.7 20:12:14 10° SSE 20:17:35 85° WSW 20:22:58 10° NNW
Lacrosse 5 rocket 1.7 20:15:25 10° NW 20:19:02 51° SW 20:22:13 12° SSE
Cosmos 1656 3.6 20:14:28 10° SSW 20:20:02 68° ESE 20:25:34 10° NNE
BREEZE-M DEB (TANK) 4.3 20:17:42 10° NW 20:20:52 42° NNE 20:28:34 12° E
Cosmos 1763 Rocket 4.4 20:20:10 10° SSE 20:24:14 24° E 20:28:17 10° NE
Cosmos 1898 Rocket 3.5 20:22:30 10° NNW 20:27:48 65° ENE 20:32:15 14° SSE
CZ-2D R/B 3.8 20:24:22 10° S 20:28:12 61° W 20:32:04 10° NNW
Cosmos 1153 Rocket 4.4 20:22:22 10° S 20:28:32 74° E 20:34:40 10° N
DELTA 2 R/B (1) 4.0 20:23:09 10° W 20:28:33 51° SSW 20:32:20 19° SE
Cosmos 2227 Rocket 3.0 20:23:37 10° NNW 20:29:07 52° WSW 20:34:33 10° S
Resurs 01 Rocket 3.9 20:26:12 10° SSW 20:29:53 25° W 20:33:35 10° NW
Cosmos 2322 Rocket 4.0 20:35:12 12° ENE 20:35:12 12° ENE 20:36:18 10° ENE
Cosmos 1500 3.0 20:31:55 10° S 20:35:38 68° E 20:39:23 10° NNE
CZ-4 DEB 2.9 20:34:36 27° SE 20:36:03 52° ENE 20:39:08 10° N
Meteor 1-12 Rocket 4.5 20:30:30 10° SSW 20:36:14 78° W 20:42:08 10° N
Cosmos 468 Rocket 3.8 20:36:21 10° SSW 20:41:27 76° ESE 20:46:35 10° NNE
OAO 2 Rocket 4.0 20:36:56 10° WSW 20:41:35 39° S 20:43:53 25° SE
YAOGAN 6 4.4 20:41:43 17° ENE 20:41:46 17° ENE 20:44:17 10° NNE
Cosmos 2297 Rocket 2.8 20:38:42 10° NNW 20:44:13 55° WSW 20:49:42 10° S
Cosmos 1340 3.4 20:41:13 10° N 20:44:43 34° ENE 20:45:27 31° E
Cosmos 1802 Rocket 4.2 20:38:40 10° SSE 20:44:47 50° E 20:50:57 10° NNE
Cosmos 841 Rocket 4.0 20:43:38 14° SSE 20:47:29 35° ESE 20:52:13 10° NE
ALOS 3.7 20:43:56 10° SSW 20:48:15 37° W 20:52:36 10° NNW
Cosmos 972 Rocket 4.5 20:42:55 10° NNW 20:48:56 74° ENE 20:53:58 19° SSE
Cosmos 1939 Rocket 3.0 20:49:04 28° SE 20:51:04 62° ENE 20:55:11 10° N
Cosmos 1814 Rocket 3.9 20:47:42 10° SSW 20:53:02 81° ESE 20:58:22 10° NNE
Cosmos 1726 Rocket 4.1 20:53:15 34° ESE 20:53:59 36° E 20:58:01 10° NNE
Cosmos 2016 Rocket 4.2 20:50:26 16° SSE 20:55:06 49° E 21:01:03 10° NNE
USA 186 3.8 20:52:40 10° SSW 20:55:16 25° W 20:57:45 10° NW
ASTEX 1 3.8 21:00:19 10° NNE 21:05:06 43° E 21:06:04 38° ESE
Cosmos 2173 Rocket 4.0 21:00:55 10° S 21:07:17 85° E 21:13:38 10° N
Cosmos 1825 Rocket 3.4 21:03:41 10° N 21:08:08 81° E 21:09:42 39° SSE
Cosmos 1743 2.9 21:13:07 24° SSW 21:15:22 72° W 21:19:18 10° N
RESURS DK-1 2.9 21:14:22 10° NW 21:18:26 54° WSW 21:19:37 39° SSW
Cosmos 1953 Rocket 3.5 21:14:35 10° N 21:19:04 77° E 21:19:56 56° SSE
Cosmos 967 Rocket 4.4 21:13:00 10° NNW 21:19:23 82° ENE 21:21:48 40° SE
Tiangong 1 2.1 21:16:33 10° W 21:18:49 41° WSW 21:18:49 41° WSW
BREEZE-M DEB (TANK) 3.7 21:05:19 10° WSW 21:19:47 87° SSE 21:22:26 28° ENE
Cosmos 1697 Rocket 3.4 21:14:21 10° SW 21:19:53 54° WNW 21:25:26 10° NNE
H-2A R/B 1.8 21:20:46 65° SSE 21:21:20 84° ENE 21:25:30 10° NNW
Cosmos 2100 Rocket 4.3 21:16:21 10° SSW 21:22:35 68° W 21:28:49 10° N
Nimbus 7 Rocket 4.3 21:19:26 10° NNE 21:25:32 79° ESE 21:30:16 18° S
Envisat 3.2 21:23:26 29° S 21:25:57 66° WSW 21:31:02 10° NNW
Cosmos 2228 4.0 21:30:30 33° NE 21:30:30 33° NE 21:33:11 10° NNE
Cosmos 1937 Rocket 4.2 21:24:20 10° NNW 21:29:26 50° WSW 21:32:04 27° SSW
SL-16 R/B 2.9 21:31:23 36° ENE 21:31:23 36° ENE 21:35:21 10° NE
NOAA 11 4.4 21:31:33 48° E 21:32:10 50° ENE 21:37:27 10° N
Cosmos 2061 Rocket 4.4 21:26:33 10° SSW 21:32:47 63° W 21:38:59 10° N
Tsikada Rocket 4.0 21:26:27 10° N 21:32:50 63° E 21:34:27 48° SE
ARGOS 3.3 21:34:52 51° E 21:35:19 52° ENE 21:40:33 10° N
Milstar 3 Cent rocket 4.5 21:17:54 10° W 21:37:10 43° SSW 21:41:58 32° SSE
Cosmos 1758 Rocket 3.5 21:33:18 10° N 21:37:40 78° W 21:37:55 74° SW
SL-19 R/B 4.1 21:33:23 10° NNE 21:38:37 58° E 21:38:37 58° E
CZ-4B R/B 4.4 21:37:16 10° NNE 21:40:07 32° NE 21:40:07 32° NE
deb Chang Zheng 4 4.0 21:38:26 10° N 21:42:51 62° WNW 21:44:26 37° SW
Cosmos 1980 Rocket 2.8 21:37:48 10° SW 21:43:23 57° WNW 21:49:01 10° NNE
Lacrosse 5 2.7 21:39:27 10° WNW 21:44:07 38° SW 21:44:53 36° SSW
H-2A R/B 3.0 21:46:51 31° NE 21:46:51 31° NE 21:50:26 10° N
Cosmos 1842 3.8 21:42:48 10° NNW 21:46:02 56° NW 21:46:02 56° NW
MetOp-B 4.1 21:46:49 58° S 21:47:51 78° WSW 21:53:14 10° NNW
SPOT 5 3.2 21:49:22 52° SSW 21:50:15 61° WSW 21:55:02 10° NNW
Cosmos 1816 Rocket 4.4 21:45:47 10° N 21:52:09 71° E 21:52:59 63° SE
Meteor 2-17 Rocket 4.4 21:52:21 60° E 21:52:21 60° E 21:58:15 10° NNE
Cosmos 1725 Rocket 3.9 21:53:16 44° SSW 21:55:26 84° W 22:01:43 10° N
BREEZE-M TANK 3.6 21:52:14 10° WNW 21:58:04 40° WSW 21:58:04 40° WSW
Cosmos 1666 4.1 22:00:57 37° NW 22:00:57 37° NW 22:03:47 10° N
Cosmos 2058 Rocket 3.9 22:03:45 48° W 22:04:04 49° WNW 22:08:27 10° N
Cosmos 2098 Rocket 4.3 22:00:54 26° SSW 22:04:52 63° W 22:10:32 10° N
SPOT 1/Viking Rocket 3.5 22:05:15 79° W 22:05:15 79° W 22:10:28 10° NNW
Cosmos 2263 Rocket 2.6 22:04:16 10° NNW 22:09:09 52° NE 22:09:09 52° NE
Meteor 2-5 Rocket 4.1 22:08:01 10° N 22:13:10 56° NE 22:13:10 56° NE
Terra 3.0 22:15:54 34° NNE 22:15:54 34° NNE 22:18:54 10° N
Cosmos 1125 Rocket 3.8 22:10:56 10° NNW 22:15:42 62° W 22:15:42 62° W
Cosmos 2322 Rocket 2.2 22:16:55 76° NW 22:16:55 76° NW 22:22:24 10° NNE
Cosmos 2233 Rocket 3.8 22:19:10 87° SW 22:19:16 88° W 22:25:33 10° N
USA 215 3.5 22:18:44 52° ENE 22:19:44 57° NNE 22:26:07 10° NW
BREEZE-M DEB (TANK) 3.6 22:08:36 10° WNW 22:25:22 82° NNE 22:25:51 76° E
Cosmos 540 Rocket 4.5 22:42:33 43° NNW 22:42:33 43° NNW 22:46:19 10° N
Cosmos 2278 Rocket 4.3 22:55:27 10° N 22:58:31 17° NE 22:58:31 17° NE
SL-16 R/B 3.8 23:13:10 28° WNW 23:14:15 30° NW 23:19:15 10° N
Cosmos 1844 Rocket 4.2 23:16:19 10° NNW 23:19:29 31° N 23:19:29 31° N
H-2A R/B 4.1 23:27:30 21° WNW 23:27:30 21° WNW 23:29:44 10° NW
Cosmos 2360 Rocket 3.7 23:30:08 33° N 23:30:08 33° N 23:33:19 10° NNE
Cosmos 2219 Rocket 4.4 23:51:39 17° NE 23:51:39 17° NE 23:52:53 10° NNE
Cosmos 2263 Rocket 4.5 23:49:09 10° NW 23:50:51 16° WNW 23:50:51 16° WNW
